Stations météo

réclame
Mon MeteoGroup
Garmisch-Partenkirchen, Allemagne (10963): Température de l'air & dewpoint: 14.04.2018 22:00:00 - 20.04.2018 22:00:00 (CEST)Garmisch-Partenkirchen, Allemagne (10963): Température de l'air 5cm & Température de l'air -5cm: 14.04.2018 22:00:00 - 20.04.2018 22:00:00 (CEST)Garmisch-Partenkirchen, Allemagne (10963): Température de l'air -20cm & Température de l'air -100cm: 14.04.2018 22:00:00 - 20.04.2018 22:00:00 (CEST)Garmisch-Partenkirchen, Allemagne (10963): Vitesse du vent & gusts: 14.04.2018 22:00:00 - 20.04.2018 22:00:00 (CEST)Garmisch-Partenkirchen, Allemagne (10963): Direction du vent: 14.04.2018 22:00:00 - 20.04.2018 22:00:00 (CEST)Garmisch-Partenkirchen, Allemagne (10963): reduced air pressure: 14.04.2018 22:00:00 - 20.04.2018 22:00:00 (CEST)Garmisch-Partenkirchen, Allemagne (10963): visibility: 14.04.2018 22:00:00 - 20.04.2018 22:00:00 (CEST)Garmisch-Partenkirchen, Allemagne (10963): Ensoleillement: 14.04.2018 22:00:00 - 20.04.2018 22:00:00 (CEST)Garmisch-Partenkirchen, Allemagne (10963): Quantités de précipitations: 14.04.2018 22:00:00 - 20.04.2018 22:00:00 (CEST)
Date & Time tt [°C] td [°C] tt 5cm [°C] tt -5cm [°C] tt -20cm [°C] tt -100cm [°C] ff [km/h] ff [knt] fx [km/h] fx [knt] dd ppp [hPa] vv [km] sd [min] rr [mm]
20.04.2018 22:00:00 13,9 8,6 11,2 19,4 19,4 9,5 3 2 10 6 WSW 1022,8 59 0 0,0
20.04.2018 21:00:00 16,2 9,6 13,6 21,1 19,8 9,5 3 2 6 4 WSW 1021,7 61 0 0,0
20.04.2018 20:00:00 20,5 9,5 16,8 23,1 19,9 9,5 3 1 23 12 WNW 1019,8 53 13 0,0
20.04.2018 19:00:00 23,4 7,8 23,8 25,1 19,8 9,5 14 7 28 15 NE 1018,8 70 60 0,0
20.04.2018 18:00:00 24,5 8,1 27,2 26,4 19,3 9,5 14 8 33 18 NNE 1018,6 41 60 0,0
20.04.2018 17:00:00 24,8 8,4 27,8 27,1 18,7 9,5 16 9 33 18 NE 1018,7 37 60 0,0
20.04.2018 16:00:00 24,9 8,0 29,0 27,1 17,8 9,5 16 9 33 18 NE 1019,0 38 60 0,0
20.04.2018 15:00:00 24,7 7,2 29,2 26,4 16,8 9,4 15 8 33 18 NE 1019,7 30 60 0,0
20.04.2018 14:00:00 24,4 6,7 29,5 25,0 15,7 9,4 16 8 27 15 NE 1020,2 35 60 0,0
20.04.2018 13:00:00 24,4 3,8 28,7 23,0 14,6 9,4 13 7 23 13 NE 1020,5 37 60 0,0
20.04.2018 12:00:00 24,6 2,8 28,2 20,4 13,6 9,4 7 4 12 6 E 1020,6 61 60 0,0
20.04.2018 11:00:00 21,8 3,1 24,4 17,2 13,0 9,4 4 2 9 5 ESE 1021,9 70 60 0,0
20.04.2018 10:00:00 18,4 3,6 19,9 13,9 12,7 9,4 5 3 10 6 S 1023,1 51 60 0,0
20.04.2018 09:00:00 15,3 5,9 14,3 11,1 12,8 9,4 3 2 5 3 SE 1024,3 43 60 0,0
20.04.2018 08:00:00 9,5 5,6 6,7 9,8 13,1 9,4 0 0 4 2 N 1026,1 49 60 0,0
20.04.2018 07:00:00 5,2 4,2 3,7 9,8 13,5 9,3 3 2 6 4 WSW 1027,4 26 1 0,0
20.04.2018 06:00:00 5,4 4,0 3,0 10,3 14,0 9,3 2 1 6 4 W 1027,5 39 0 0,0
20.04.2018 05:00:00 5,8 4,4 4,0 10,9 14,4 9,3 4 2 6 3 NNW 1027,8 41 0 0,0
20.04.2018 04:00:00 5,8 4,7 3,5 11,6 14,9 9,3 2 1 5 3 WNW 1028,2 40 0 0,0
20.04.2018 03:00:00 6,1 5,0 4,6 12,3 15,5 9,3 3 2 5 3 W 1028,2 31 0 0,0
20.04.2018 02:00:00 6,9 5,2 5,5 13,2 16,0 9,3 4 2 6 3 SW 1028,4 37 0 0,0
20.04.2018 01:00:00 8,3 5,8 6,0 14,1 16,5 9,3 0 0 7 4 N 1028,2 50 0 0,0
20.04.2018 00:00:00 9,4 6,0 7,1 15,1 17,1 9,3 4 2 11 6 SSW 1028,2 48 0 0,0
19.04.2018 23:00:00 10,5 6,5 8,5 16,3 17,6 9,3 4 2 8 4 SSW 1027,9 60 0 0,0
19.04.2018 22:00:00 13,1 6,6 9,4 17,7 18,2 9,3 3 2 8 4 WSW 1027,2 70 0 0,0
19.04.2018 21:00:00 15,6 7,2 11,3 19,5 18,5 9,2 0 0 10 5 N 1025,9 70 0 0,0
19.04.2018 20:00:00 19,7 4,9 16,7 21,5 18,7 9,2 5 3 29 15 ENE 1024,1 70 13 0,0
19.04.2018 19:00:00 22,0 4,8 22,4 23,6 18,6 9,2 14 7 31 17 NNE 1023,0 70 60 0,0
19.04.2018 18:00:00 23,2 4,7 25,6 25,0 18,2 9,2 13 7 32 17 NNE 1022,7 47 60 0,0
19.04.2018 17:00:00 23,9 5,2 26,9 25,8 17,6 9,2 16 8 31 17 NE 1022,6 37 60 0,0
19.04.2018 16:00:00 24,3 6,0 29,0 25,8 16,7 9,2 15 8 33 18 NNE 1022,8 40 60 0,0
19.04.2018 15:00:00 24,1 5,3 29,7 25,2 15,7 9,2 15 8 30 16 NE 1023,3 48 60 0,0
19.04.2018 14:00:00 23,3 5,3 27,6 23,9 14,6 9,2 16 9 27 15 NE 1024,2 34 60 0,0
19.04.2018 13:00:00 22,9 4,7 27,2 22,0 13,5 9,2 14 7 24 13 NE 1024,7 39 60 0,0
19.04.2018 12:00:00 22,4 -1,4 26,0 19,3 12,5 9,1 4 2 11 6 ESE 1025,2 56 60 0,0
19.04.2018 11:00:00 20,9 2,3 24,1 16,0 11,8 9,1 5 3 9 5 ENE 1025,9 55 60 0,0
19.04.2018 10:00:00 17,7 3,6 18,7 12,6 11,5 9,1 4 2 8 4 SE 1027,1 61 60 0,0
19.04.2018 09:00:00 13,9 4,6 13,1 9,7 11,5 9,1 2 1 6 3 SSE 1028,7 54 60 0,0
19.04.2018 08:00:00 8,2 4,0 5,7 8,4 11,9 9,1 2 1 7 4 ENE 1030,9 41 60 0,0
19.04.2018 07:00:00 3,5 2,7 1,8 8,4 12,3 9,1 3 2 7 4 SW 1032,2 20 0 0,0
19.04.2018 06:00:00 3,4 2,8 1,9 8,9 12,7 9,1 4 2 6 3 WSW 1032,4 22 0 0,0
19.04.2018 05:00:00 3,8 2,9 2,8 9,5 13,2 9,1 4 2 6 4 SW 1032,4 22 0 0,0
19.04.2018 04:00:00 4,9 3,5 2,7 10,1 13,7 9,1 3 1 6 4 WSW 1032,5 38 0 0,0
19.04.2018 03:00:00 4,9 3,6 3,7 10,8 14,2 9,1 2 1 6 4 WSW 1032,8 35 0 0,0
19.04.2018 02:00:00 5,7 3,7 4,5 11,6 14,8 9,1 5 3 11 6 SW 1032,7 42 0 0,0
19.04.2018 01:00:00 6,8 4,5 4,9 12,5 15,3 9,0 3 2 10 5 SSW 1032,6 45 0 0,0
19.04.2018 00:00:00 7,7 5,0 5,4 13,5 15,9 9,0 5 3 8 4 SW 1032,3 42 0 0,0
18.04.2018 23:00:00 8,9 5,1 7,1 14,7 16,5 9,0 5 3 7 4 SSW 1031,7 51 0 0,0
18.04.2018 22:00:00 10,8 5,7 8,3 16,1 17,0 9,0 3 2 7 4 SW 1031,1 64 0 0,0
18.04.2018 21:00:00 13,7 5,5 10,5 17,8 17,5 9,0 0 0 13 7 N 1029,8 54 0 0,0
18.04.2018 20:00:00 17,2 4,6 15,2 19,9 17,8 9,0 6 3 23 12 ESE 1028,2 68 14 0,0
18.04.2018 19:00:00 19,7 4,7 20,7 22,1 17,7 9,0 12 6 30 16 NE 1027,2 70 60 0,0
18.04.2018 18:00:00 20,9 4,4 23,2 23,5 17,4 9,0 14 8 31 17 NNE 1026,7 47 60 0,0
18.04.2018 17:00:00 21,7 4,2 24,5 24,6 16,9 9,0 13 7 32 17 NNE 1026,5 67 60 0,0
18.04.2018 16:00:00 21,9 4,0 26,1 24,8 16,1 9,0 14 7 36 20 NNE 1026,6 28 60 0,0
18.04.2018 15:00:00 22,4 2,9 27,3 24,3 15,1 9,0 15 8 29 16 NE 1026,7 32 60 0,0
18.04.2018 14:00:00 21,4 0,5 26,0 23,0 14,0 8,9 13 7 24 13 NE 1027,4 50 60 0,0
18.04.2018 13:00:00 20,8 5,3 25,0 21,0 13,0 8,9 11 6 24 13 ENE 1027,8 35 60 0,0
18.04.2018 12:00:00 19,2 3,8 22,8 18,5 12,1 8,9 12 7 22 12 NE 1028,6 50 60 0,0
18.04.2018 11:00:00 17,2 4,4 20,2 15,4 11,4 8,9 4 2 9 5 E 1029,3 55 60 0,0
18.04.2018 10:00:00 14,9 6,2 16,5 12,1 11,1 8,9 5 3 9 5 E 1030,5 49 60 0,0
18.04.2018 09:00:00 11,2 5,3 10,1 9,4 11,2 8,9 4 2 7 4 S 1031,8 50 60 0,0
18.04.2018 08:00:00 6,6 4,9 5,1 8,1 11,5 8,9 3 2 5 3 SW 1033,3 27 59 0,0
18.04.2018 07:00:00 3,3 2,8 2,5 8,2 11,9 8,9 3 2 5 3 WSW 1034,1 14 0 0,0
18.04.2018 06:00:00 3,7 3,3 2,5 8,7 12,4 8,9 5 3 9 5 SSW 1033,7 15 0 0,0
18.04.2018 05:00:00 4,5 4,0 3,1 9,3 12,9 8,9 7 4 13 7 SSW 1033,5 39 0 0,0
18.04.2018 04:00:00 4,4 3,7 3,5 10,0 13,4 8,9 5 3 8 4 SW 1033,2 10 0 0,0
18.04.2018 03:00:00 4,9 4,1 3,4 10,7 13,9 8,9 3 2 6 4 SW 1032,8 40 0 0,0
18.04.2018 02:00:00 6,0 4,7 4,1 11,6 14,4 8,9 3 2 7 4 S 1032,4 37 0 0,0
18.04.2018 01:00:00 6,8 5,4 5,0 12,5 15,0 8,9 5 3 13 7 S 1031,7 43 0 0,0
18.04.2018 00:00:00 8,3 6,2 6,2 13,6 15,6 8,9 3 2 9 5 W 1030,7 50 0 0,0
17.04.2018 23:00:00 10,0 6,7 7,8 14,8 16,1 8,9 4 2 7 4 SW 1030,1 70 0 0,0
17.04.2018 22:00:00 12,0 7,4 10,1 16,4 16,6 8,9 4 2 5 3 WSW 1029,0 70 0 0,0
17.04.2018 21:00:00 15,1 7,1 13,6 17,8 16,9 8,9 3 2 14 8 NNW 1026,8 70 0 0,0
17.04.2018 20:00:00 16,9 5,1 16,2 19,3 17,2 8,9 6 3 17 9 NNE 1025,3 70 14 0,0
17.04.2018 19:00:00 17,6 4,6 18,2 20,7 17,3 8,9 7 4 21 12 NNE 1024,2 70 10 0,0
17.04.2018 18:00:00 18,2 4,8 18,4 23,1 17,1 8,8 9 5 23 13 N 1023,7 70 34 0,0
17.04.2018 17:00:00 19,7 5,1 24,2 24,5 16,5 8,8 12 6 24 13 NNE 1022,9 50 60 0,0
17.04.2018 16:00:00 19,8 4,9 25,2 24,4 15,6 8,8 13 7 29 16 NE 1022,7 20 57 0,0
17.04.2018 15:00:00 19,1 4,6 24,1 23,8 14,7 8,8 13 7 24 13 NE 1023,1 35 60 0,0
17.04.2018 14:00:00 19,3 4,1 25,4 22,1 13,7 8,8 8 5 18 10 NE 1023,0 30 60 0,0
17.04.2018 13:00:00 15,9 7,0 17,6 20,0 12,8 8,8 6 3 18 10 E 1024,2 58 39 0,0
17.04.2018 12:00:00 17,2 6,6 19,9 18,6 11,9 8,8 10 5 17 9 ENE 1024,1 32 60 0,0
17.04.2018 11:00:00 15,2 7,2 16,1 15,4 11,2 8,8 3 2 7 4 NE 1024,1 57 60 0,0
17.04.2018 10:00:00 13,1 7,4 12,7 12,4 11,0 8,8 3 2 7 4 E 1024,5 70 34 0,0
17.04.2018 09:00:00 9,3 7,9 9,2 10,6 11,0 8,8 4 2 8 4 W 1025,6 61 0 0,0
17.04.2018 08:00:00 8,4 7,8 8,4 10,1 11,1 8,8 2 1 7 4 WSW 1025,4 38 0 0,0
17.04.2018 07:00:00 7,8 7,4 7,5 10,0 11,3 8,8 4 2 9 5 SSW 1024,6 25 0 0,0
17.04.2018 06:00:00 7,8 7,5 7,3 10,3 11,4 8,8 4 2 7 4 SSW 1024,0 9 0 0,2
17.04.2018 05:00:00 8,2 7,7 8,0 10,5 11,6 8,8 2 1 4 2 SW 1023,9 10 0 0,1
17.04.2018 04:00:00 8,4 7,9 8,2 10,7 11,8 8,8 2 1 4 2 NW 1023,3 46 0 0,0
17.04.2018 03:00:00 8,5 8,0 8,2 10,9 11,9 8,8 3 2 6 4 WSW 1022,9 36 0 0,0
17.04.2018 02:00:00 8,4 7,9 8,1 11,1 12,1 8,8 4 2 5 3 S 1022,7 18 0 0,0
17.04.2018 01:00:00 8,9 8,3 8,6 11,4 12,3 8,8 2 1 10 6 NW 1021,9 70 0 0,0
17.04.2018 00:00:00 8,9 8,3 8,7 11,7 12,5 8,8 4 2 7 4 SSW 1021,5 36 0 0,0
16.04.2018 23:00:00 9,1 8,4 8,9 12,0 12,7 8,8 0 0 6 4 N 1021,0 51 0 0,0
16.04.2018 22:00:00 9,2 8,4 8,8 12,4 12,9 8,8 5 3 8 4 SW 1020,5 70 0 0,0
16.04.2018 21:00:00 10,0 9,4 9,8 12,9 13,1 8,8 0 0 8 4 N 1019,6 10 0 0,0
16.04.2018 20:00:00 10,6 9,7 10,4 13,4 13,3 8,7 4 2 12 6 WSW 1018,5 16 0 0,7
16.04.2018 19:00:00 11,1 9,4 10,8 14,2 13,3 8,7 7 4 14 7 E 1017,4 25 0 0,0
16.04.2018 18:00:00 12,1 9,7 11,9 14,9 13,2 8,7 5 3 12 7 E 1016,4 39 0 0,0
16.04.2018 17:00:00 12,9 8,0 13,0 15,5 13,0 8,7 4 2 8 4 NE 1015,8 56 0 0,0
16.04.2018 16:00:00 12,8 7,9 13,0 15,4 12,8 8,7 3 2 10 5 NE 1015,6 45 0 0,0
16.04.2018 15:00:00 12,2 8,2 12,4 14,6 12,6 8,7 6 4 11 6 ENE 1015,8 70 0 0,0
16.04.2018 14:00:00 12,4 8,2 13,1 14,8 12,3 8,7 4 2 8 4 N 1015,4 70 0 0,0
16.04.2018 13:00:00 11,2 8,5 11,4 13,3 12,1 8,7 5 3 8 5 NNE 1015,7 62 0 0,0
16.04.2018 12:00:00 11,0 8,3 10,7 13,1 12,0 8,7 3 2 10 5 SSW 1015,6 52 0 0,0
16.04.2018 11:00:00 10,6 8,2 11,0 12,4 11,9 8,7 2 1 8 4 W 1015,2 14 0 0,2
16.04.2018 10:00:00 9,6 8,0 9,6 11,7 11,9 8,7 4 2 11 6 WSW 1015,2 34 0 0,5
16.04.2018 09:00:00 8,8 8,4 9,0 11,2 12,1 8,7 4 2 8 4 SSW 1014,9 13 0 0,6
16.04.2018 08:00:00 8,7 8,1 8,6 11,1 12,2 8,7 2 1 6 3 SW 1014,4 18 0 0,4
16.04.2018 07:00:00 8,7 8,2 8,5 11,3 12,4 8,6 0 0 4 2 N 1013,8 17 0 0,3
16.04.2018 06:00:00 9,0 8,5 8,7 11,5 12,7 8,6 0 0 9 5 N 1013,2 12 0 1,5
16.04.2018 05:00:00 9,3 8,8 9,0 11,8 12,9 8,6 6 3 12 7 SSW 1012,7 5 0 1,2
16.04.2018 04:00:00 9,4 9,0 9,2 12,1 13,1 8,6 5 3 9 5 SSW 1012,7 2,6 0 1,9
16.04.2018 03:00:00 9,5 9,1 9,4 12,4 13,4 8,6 4 2 6 4 SW 1012,5 3,1 0 2,2
16.04.2018 02:00:00 10,1 9,3 9,6 12,8 13,6 8,6 0 0 5 3 N 1012,0 3,7 0 0,8
16.04.2018 01:00:00 10,2 9,4 9,9 13,1 13,8 8,6 3 2 11 6 WSW 1011,7 17 0 0,2
16.04.2018 00:00:00 10,3 9,4 9,9 13,6 14,1 8,6 6 3 13 7 SW 1011,8 26 0 0,4
15.04.2018 23:00:00 11,2 8,5 10,2 14,2 14,3 8,6 4 2 6 3 W 1011,7 37 0 0,2
15.04.2018 22:00:00 12,3 6,4 11,2 14,7 14,5 8,6 3 2 5 3 WSW 1011,0 58 0 0,0
15.04.2018 21:00:00 13,2 6,4 11,9 15,4 14,7 8,6 3 2 8 4 SW 1010,3 70 0 0,0
15.04.2018 20:00:00 14,5 6,7 13,2 16,1 14,8 8,6 3 1 8 4 WNW 1009,2 70 0 0,0
15.04.2018 19:00:00 16,1 5,4 15,1 17,0 14,8 8,5 5 3 15 8 ENE 1008,6 70 0 0,0
15.04.2018 18:00:00 16,7 5,3 16,4 17,8 14,7 8,5 9 5 22 12 NE 1008,1 70 0 0,0
15.04.2018 17:00:00 17,6 5,4 18,0 18,8 14,3 8,5 10 5 22 12 NE 1007,9 70 0 0,0
15.04.2018 16:00:00 19,0 4,5 21,0 19,4 13,8 8,5 9 5 19 10 NE 1007,7 70 0 0,0
15.04.2018 15:00:00 19,4 2,7 21,5 19,0 13,1 8,5 6 4 16 9 ESE 1008,5 70 21 0,0
15.04.2018 14:00:00 19,4 4,7 24,0 17,0 12,6 8,5 5 3 14 8 E 1008,9 70 7 0,0
15.04.2018 13:00:00 17,8 2,5 20,1 15,3 12,2 8,5 5 3 10 6 S 1010,3 70 0 0,0
15.04.2018 12:00:00 16,4 2,8 18,0 14,4 11,9 8,5 4 2 8 5 S 1011,3 70 0 0,0
15.04.2018 11:00:00 15,6 2,9 16,7 13,3 11,6 8,5 3 1 5 3 SSW 1012,1 70 1 0,0
15.04.2018 10:00:00 14,1 3,3 14,7 12,1 11,4 8,4 0 0 11 6 N 1012,7 70 41 0,0
15.04.2018 09:00:00 10,4 3,8 11,4 10,1 11,5 8,4 3 2 7 4 WSW 1014,6 70 16 0,0
15.04.2018 08:00:00 5,8 2,9 5,8 9,1 11,8 8,4 4 2 8 4 SSW 1016,6 70 7 0,0
15.04.2018 07:00:00 4,5 2,3 3,2 9,1 12,1 8,4 2 1 8 4 NNE 1016,9 70 0 0,0
15.04.2018 06:00:00 4,3 2,4 2,8 9,4 12,5 8,4 3 2 8 4 WSW 1016,7 70 0 0,0
15.04.2018 05:00:00 4,7 2,2 2,7 9,9 12,9 8,4 3 2 7 4 NW 1016,5 70 0 0,0
15.04.2018 04:00:00 4,8 2,6 3,0 10,3 13,3 8,4 3 2 10 6 NNE 1016,8 70 0 0,0
15.04.2018 03:00:00 4,9 2,3 2,6 10,9 13,8 8,4 4 2 7 4 WSW 1017,6 70 0 0,0
15.04.2018 02:00:00 4,6 2,4 2,7 11,6 14,3 8,4 5 3 10 5 SSW 1018,1 70 0 0,0
15.04.2018 01:00:00 5,8 2,7 3,3 12,5 14,8 8,4 4 2 12 7 SSW 1018,2 70 0 0,0
15.04.2018 00:00:00 6,5 3,6 5,1 13,5 15,3 8,4 6 3 10 6 SSW 1018,7 70 0 0,0
14.04.2018 23:00:00 7,8 3,6 5,0 14,6 15,8 8,4 3 2 9 5 S 1018,8 70 0 0,0
14.04.2018 22:00:00 9,9 3,8 6,5 15,9 16,2 8,3 4 2 9 5 SW 1018,2 70 0 0,0

tt = Température de l'air
td = dewpoint
tt 5cm = Température de l'air 5cm
tt -5cm = Température de l'air -5cm
tt -20cm = Température de l'air -20cm
tt -100cm = Température de l'air -100cm
ff = Vitesse du vent
fx = gusts
dd = Direction du vent
ppp = reduced air pressure
vv = visibility
sd = Ensoleillement
rr = Quantités de précipitations

stations d'obs. à proximité